{"data":{"norad_id":69093,"epoch":"2026-05-30T06:38:31.672608Z","epoch_age_seconds":9805762,"freshness":"OLD","line1":"1 69093U 25135BW  26150.27675547  .04874643  19851-5  38868-3 0  9991","line2":"2 69093  97.4143 262.0509 0183315 143.0619 218.3452 16.03833545  3967","mean_motion":16.03833545,"eccentricity":0.0183315,"inclination_deg":97.4143,"raan_deg":262.0509,"arg_perigee_deg":143.0619,"mean_anomaly_deg":218.3452,"bstar":0.00038868,"rev_number":396,"period_min":89.784878517427,"perigee_km":142.05675756498,"apogee_km":385.57059521344,"semimajor_km":6641.9506763892,"source":"CELESTRAK","updated_at":"2026-05-30T09:00:27.650624Z"}}